| time (UTC) | temp F | wind direction | speed MPH | gust MPH | rain 1hr in | rain 24hr in | rain mn in | humidity % | barometer mb |
| 20260510042827 | 81 | 340 | 1.0 | 3.0 | 0.00 | 0.00 | 0.00 | 78 | 1018.1 |
| 20260510042323 | 81 | 340 | 1.0 | 3.0 | 0.00 | 0.00 | 0.00 | 77 | 1018.3 |
| 20260510041819 | 81 | 35 | 2.0 | 8.0 | 0.00 | 0.00 | 0.00 | 77 | 1018.3 |
| 20260510041317 | 81 | 337 | 1.0 | 6.0 | 0.00 | 0.00 | 0.00 | 77 | 1018.3 |
| 20260510040814 | 81 | 88 | 4.0 | 8.0 | 0.00 | 0.00 | 0.00 | 77 | 1018.3 |
| 20260510040310 | 81 | 96 | 4.0 | 7.0 | 0.00 | 0.00 | 0.00 | 77 | 1018.3 |
| 20260510035806 | 81 | 38 | 5.0 | 7.0 | 0.00 | 0.00 | 0.00 | 77 | 1018.3 |
| 20260510035306 | 81 | 345 | 1.0 | 3.0 | 0.00 | 0.00 | 0.00 | 78 | 1018.3 |
| 20260510034758 | 81 | 132 | 2.0 | 4.0 | 0.00 | 0.00 | 0.00 | 78 | 1018.4 |
| 20260510034256 | 81 | 346 | 0.0 | 1.0 | 0.00 | 0.00 | 0.00 | 77 | 1018.4 |
| 20260510033752 | 81 | 41 | 0.0 | 1.0 | 0.00 | 0.00 | 0.00 | 77 | 1018.5 |
| 20260510033250 | 81 | 40 | 1.0 | 2.0 | 0.00 | 0.00 | 0.00 | 76 | 1018.3 |
| 20260510032746 | 81 | 0 | 3.0 | 4.0 | 0.00 | 0.00 | 0.00 | 76 | 1018.4 |
| 20260510032242 | 81 | 49 | 4.0 | 8.0 | 0.00 | 0.00 | 0.00 | 76 | 1018.3 |
| 20260510031737 | 81 | 44 | 3.0 | 6.0 | 0.00 | 0.00 | 0.00 | 76 | 1018.6 |
| 20260510031233 | 81 | 355 | 3.0 | 6.0 | 0.00 | 0.00 | 0.00 | 77 | 1018.5 |
| 20260510030733 | 81 | 349 | 1.0 | 3.0 | 0.00 | 0.00 | 0.00 | 77 | 1018.4 |
| 20260510030231 | 81 | 13 | 2.0 | 6.0 | 0.00 | 0.00 | 0.00 | 77 | 1018.4 |
| 20260510025728 | 81 | 317 | 0.0 | 3.0 | 0.00 | 0.00 | 0.00 | 76 | 1018.5 |
| 20260510025225 | 81 | 249 | 4.0 | 6.0 | 0.00 | 0.00 | 0.00 | 76 | 1018.3 |
| 20260510024722 | 81 | 260 | 2.0 | 8.0 | 0.00 | 0.00 | 0.00 | 76 | 1018.5 |
| 20260510024219 | 81 | 5 | 3.0 | 3.0 | 0.00 | 0.00 | 0.00 | 77 | 1018.4 |
| 20260510023714 | 81 | 19 | 0.0 | 3.0 | 0.00 | 0.00 | 0.00 | 77 | 1018.5 |
| 20260510023211 | 81 | 27 | 3.0 | 9.0 | 0.00 | 0.00 | 0.00 | 77 | 1018.4 |
| 20260510022707 | 81 | 341 | 2.0 | 4.0 | 0.00 | 0.00 | 0.00 | 77 | 1018.3 |
| 20260510022202 | 81 | 349 | 2.0 | 2.0 | 0.00 | 0.00 | 0.00 | 77 | 1018.2 |
| 20260510021657 | 81 | 280 | 1.0 | 3.0 | 0.00 | 0.00 | 0.00 | 77 | 1018.2 |
| 20260510021155 | 81 | 37 | 2.0 | 7.0 | 0.00 | 0.00 | 0.00 | 77 | 1018.2 |
| 20260510020649 | 81 | 69 | 4.0 | 7.0 | 0.00 | 0.00 | 0.00 | 77 | 1018.4 |
| 20260510020145 | 81 | 10 | 1.0 | 2.0 | 0.00 | 0.00 | 0.00 | 77 | 1018.2 |
| 20260510015636 | 81 | 53 | 4.0 | 7.0 | 0.00 | 0.00 | 0.00 | 77 | 1018.3 |
| 20260510015133 | 81 | 35 | 2.0 | 4.0 | 0.00 | 0.00 | 0.00 | 77 | 1018.2 |
| 20260510014633 | 82 | 8 | 1.0 | 4.0 | 0.00 | 0.00 | 0.00 | 76 | 1018.2 |
| 20260510014131 | 82 | 314 | 0.0 | 4.0 | 0.00 | 0.00 | 0.00 | 76 | 1018.1 |
| 20260510013630 | 81 | 21 | 3.0 | 8.0 | 0.00 | 0.00 | 0.00 | 75 | 1018.1 |
| 20260510013127 | 81 | 190 | 2.0 | 4.0 | 0.00 | 0.00 | 0.00 | 75 | 1017.9 |
| 20260510012626 | 81 | 292 | 4.0 | 9.0 | 0.00 | 0.00 | 0.00 | 76 | 1017.9 |
| 20260510012123 | 82 | 9 | 2.0 | 3.0 | 0.00 | 0.00 | 0.00 | 77 | 1017.8 |
| 20260510011622 | 82 | 148 | 3.0 | 6.0 | 0.00 | 0.00 | 0.00 | 76 | 1017.8 |
| 20260510011118 | 82 | 44 | 2.0 | 7.0 | 0.00 | 0.00 | 0.00 | 76 | 1017.7 |
| 20260510010615 | 82 | 339 | 1.0 | 6.0 | 0.00 | 0.00 | 0.00 | 75 | 1017.7 |
| 20260510010112 | 82 | 1 | 2.0 | 6.0 | 0.00 | 0.00 | 0.00 | 75 | 1017.6 |
| 20260510005607 | 81 | 19 | 1.0 | 4.0 | 0.00 | 0.00 | 0.00 | 75 | 1017.5 |
| 20260510005105 | 81 | 354 | 1.0 | 6.0 | 0.00 | 0.00 | 0.00 | 76 | 1017.6 |
| 20260510004603 | 82 | 13 | 2.0 | 3.0 | 0.00 | 0.00 | 0.00 | 77 | 1017.5 |
| 20260510004101 | 82 | 15 | 1.0 | 4.0 | 0.00 | 0.00 | 0.00 | 77 | 1017.5 |
| 20260510003557 | 82 | 194 | 2.0 | 10.0 | 0.00 | 0.00 | 0.00 | 77 | 1017.2 |
| 20260510003053 | 82 | 48 | 3.0 | 4.0 | 0.00 | 0.00 | 0.00 | 77 | 1017.0 |
| 20260510002548 | 82 | 352 | 1.0 | 4.0 | 0.00 | 0.00 | 0.00 | 76 | 1017.0 |
| 20260510002046 | 82 | 39 | 1.0 | 7.0 | 0.00 | 0.00 | 0.00 | 76 | 1017.2 |
| 20260510001542 | 82 | 18 | 1.0 | 6.0 | 0.00 | 0.00 | 0.00 | 76 | 1016.8 |
| 20260510001041 | 82 | 356 | 1.0 | 4.0 | 0.00 | 0.00 | 0.00 | 76 | 1016.9 |
| 20260510000536 | 82 | 33 | 0.0 | 6.0 | 0.00 | 0.00 | 0.00 | 76 | 1016.7 |
| 20260510000033 | 82 | 344 | 3.0 | 6.0 | 0.00 | 0.00 | 0.00 | 76 | 1016.6 |
| 20260509235530 | 82 | 41 | 2.0 | 7.0 | 0.00 | 0.00 | 0.00 | 75 | 1016.5 |
| 20260509235027 | 82 | 355 | 3.0 | 7.0 | 0.00 | 0.00 | 0.00 | 75 | 1016.5 |
| 20260509234523 | 82 | 357 | 2.0 | 4.0 | 0.00 | 0.00 | 0.00 | 75 | 1016.7 |
| 20260509234021 | 82 | 59 | 4.0 | 7.0 | 0.00 | 0.00 | 0.00 | 75 | 1016.4 |
| 20260509233518 | 82 | 325 | 2.0 | 6.0 | 0.00 | 0.00 | 0.00 | 74 | 1016.4 |
| 20260509233016 | 82 | 295 | 4.0 | 13.0 | 0.00 | 0.00 | 0.00 | 74 | 1016.5 |
| 20260509232512 | 82 | 354 | 0.0 | 6.0 | 0.00 | 0.00 | 0.00 | 73 | 1016.3 |
| 20260509232008 | 82 | 4 | 2.0 | 8.0 | 0.00 | 0.00 | 0.00 | 73 | 1016.2 |
| 20260509231505 | 82 | 10 | 0.0 | 3.0 | 0.00 | 0.00 | 0.00 | 74 | 1016.3 |
| 20260509231003 | 82 | 2 | 1.0 | 4.0 | 0.00 | 0.00 | 0.00 | 74 | 1016.3 |
| 20260509230500 | 82 | 14 | 1.0 | 6.0 | 0.00 | 0.00 | 0.00 | 74 | 1016.2 |
| 20260509225955 | 83 | 104 | 2.0 | 6.0 | 0.00 | 0.00 | 0.00 | 74 | 1016.3 |
| 20260509225452 | 83 | 343 | 1.0 | 7.0 | 0.00 | 0.00 | 0.00 | 75 | 1016.1 |
| 20260509224947 | 83 | 45 | 3.0 | 8.0 | 0.00 | 0.00 | 0.00 | 75 | 1016.1 |
| 20260509224443 | 83 | 338 | 2.0 | 6.0 | 0.00 | 0.00 | 0.00 | 75 | 1016.0 |
| 20260509223941 | 83 | 46 | 2.0 | 4.0 | 0.00 | 0.00 | 0.00 | 76 | 1016.1 |
| 20260509223437 | 83 | 341 | 1.0 | 7.0 | 0.00 | 0.00 | 0.00 | 75 | 1015.9 |
| 20260509222935 | 83 | 330 | 2.0 | 3.0 | 0.00 | 0.00 | 0.00 | 75 | 1016.0 |
| 20260509222429 | 83 | 353 | 2.0 | 4.0 | 0.00 | 0.00 | 0.00 | 75 | 1015.8 |
| 20260509221925 | 84 | 351 | 2.0 | 8.0 | 0.00 | 0.00 | 0.00 | 74 | 1015.7 |
| 20260509221422 | 84 | 6 | 3.0 | 3.0 | 0.00 | 0.00 | 0.00 | 73 | 1015.6 |
| 20260509220918 | 84 | 70 | 5.0 | 9.0 | 0.00 | 0.00 | 0.00 | 72 | 1015.6 |
| 20260509220414 | 84 | 245 | 1.0 | 8.0 | 0.00 | 0.00 | 0.00 | 72 | 1015.3 |
| 20260509215910 | 84 | 329 | 2.0 | 7.0 | 0.00 | 0.00 | 0.00 | 72 | 1015.4 |
| 20260509215401 | 84 | 98 | 4.0 | 8.0 | 0.00 | 0.00 | 0.00 | 70 | 1015.4 |
| 20260509214858 | 85 | 116 | 3.0 | 4.0 | 0.00 | 0.00 | 0.00 | 69 | 1015.3 |
| 20260509214355 | 85 | 358 | 1.0 | 4.0 | 0.00 | 0.00 | 0.00 | 67 | 1015.2 |
| 20260509213852 | 85 | 338 | 4.0 | 7.0 | 0.00 | 0.00 | 0.00 | 66 | 1015.4 |
| 20260509213347 | 86 | 86 | 2.0 | 7.0 | 0.00 | 0.00 | 0.00 | 66 | 1015.3 |
| 20260509212845 | 86 | 212 | 4.0 | 7.0 | 0.00 | 0.00 | 0.00 | 65 | 1015.6 |
| 20260509212342 | 86 | 344 | 3.0 | 8.0 | 0.00 | 0.00 | 0.00 | 65 | 1015.4 |
| 20260509211838 | 87 | 92 | 4.0 | 6.0 | 0.00 | 0.00 | 0.00 | 64 | 1015.4 |
| 20260509211334 | 87 | 346 | 2.0 | 4.0 | 0.00 | 0.00 | 0.00 | 63 | 1015.5 |
| 20260509210830 | 87 | 353 | 4.0 | 8.0 | 0.00 | 0.00 | 0.00 | 63 | 1015.7 |
| 20260509210328 | 87 | 57 | 4.0 | 10.0 | 0.00 | 0.00 | 0.00 | 63 | 1015.4 |
| 20260509205828 | 87 | 208 | 3.0 | 7.0 | 0.00 | 0.00 | 0.00 | 62 | 1015.5 |
| 20260509205323 | 87 | 20 | 4.0 | 8.0 | 0.00 | 0.00 | 0.00 | 62 | 1015.6 |
| 20260509204820 | 87 | 62 | 4.0 | 9.0 | 0.00 | 0.00 | 0.00 | 62 | 1015.6 |
| 20260509204316 | 87 | 58 | 3.0 | 10.0 | 0.00 | 0.00 | 0.00 | 62 | 1015.5 |
| 20260509203813 | 88 | 57 | 2.0 | 8.0 | 0.00 | 0.00 | 0.00 | 62 | 1015.6 |
| 20260509203310 | 88 | 150 | 3.0 | 7.0 | 0.00 | 0.00 | 0.00 | 60 | 1015.6 |
| 20260509202806 | 88 | 81 | 2.0 | 6.0 | 0.00 | 0.00 | 0.00 | 58 | 1015.7 |
| 20260509202306 | 89 | 193 | 3.0 | 8.0 | 0.00 | 0.00 | 0.00 | 57 | 1015.6 |
| 20260509201801 | 88 | 232 | 2.0 | 8.0 | 0.00 | 0.00 | 0.00 | 58 | 1015.7 |
| 20260509201258 | 89 | 229 | 4.0 | 7.0 | 0.00 | 0.00 | 0.00 | 57 | 1015.8 |
| 20260509200754 | 89 | 201 | 2.0 | 4.0 | 0.00 | 0.00 | 0.00 | 58 | 1015.8 |
| 20260509200249 | 89 | 79 | 3.0 | 7.0 | 0.00 | 0.00 | 0.00 | 57 | 1015.8 |
| 20260509195746 | 89 | 353 | 2.0 | 7.0 | 0.00 | 0.00 | 0.00 | 57 | 1016.0 |
| 20260509195241 | 89 | 209 | 4.0 | 6.0 | 0.00 | 0.00 | 0.00 | 55 | 1015.9 |
| 20260509194736 | 89 | 273 | 3.0 | 4.0 | 0.00 | 0.00 | 0.00 | 58 | 1016.0 |
| 20260509194232 | 89 | 356 | 2.0 | 8.0 | 0.00 | 0.00 | 0.00 | 58 | 1016.0 |
| 20260509193730 | 89 | 101 | 1.0 | 7.0 | 0.00 | 0.00 | 0.00 | 57 | 1016.2 |
| 20260509193229 | 89 | 25 | 3.0 | 8.0 | 0.00 | 0.00 | 0.00 | 58 | 1016.1 |
| 20260509192726 | 88 | 298 | 2.0 | 4.0 | 0.00 | 0.00 | 0.00 | 58 | 1016.1 |
| 20260509192221 | 87 | 293 | 2.0 | 4.0 | 0.00 | 0.00 | 0.00 | 65 | 1016.0 |
| 20260509191717 | 87 | 88 | 3.0 | 4.0 | 0.00 | 0.00 | 0.00 | 65 | 1016.2 |
| 20260509191214 | 86 | 7 | 2.0 | 6.0 | 0.00 | 0.00 | 0.00 | 66 | 1016.2 |
| 20260509190710 | 86 | 235 | 4.0 | 8.0 | 0.00 | 0.00 | 0.00 | 67 | 1016.4 |
| 20260509190207 | 87 | 113 | 3.0 | 8.0 | 0.00 | 0.00 | 0.00 | 66 | 1016.4 |
| 20260509185704 | 87 | 141 | 4.0 | 7.0 | 0.00 | 0.00 | 0.00 | 67 | 1016.3 |
| 20260509185200 | 86 | 309 | 6.0 | 9.0 | 0.00 | 0.00 | 0.00 | 67 | 1016.3 |
| 20260509184658 | 87 | 152 | 5.0 | 8.0 | 0.00 | 0.00 | 0.00 | 67 | 1016.6 |
| 20260509184155 | 87 | 114 | 3.0 | 9.0 | 0.00 | 0.00 | 0.00 | 67 | 1016.6 |
| 20260509183651 | 87 | 98 | 5.0 | 7.0 | 0.00 | 0.00 | 0.00 | 67 | 1016.8 |
| 20260509183146 | 87 | 337 | 4.0 | 11.0 | 0.00 | 0.00 | 0.00 | 66 | 1016.9 |
| 20260509182642 | 86 | 6 | 6.0 | 9.0 | 0.00 | 0.00 | 0.00 | 68 | 1017.1 |
| 20260509182140 | 87 | 21 | 6.0 | 9.0 | 0.00 | 0.00 | 0.00 | 67 | 1017.0 |
| 20260509181638 | 87 | 85 | 3.0 | 9.0 | 0.00 | 0.00 | 0.00 | 64 | 1017.3 |
| 20260509181135 | 88 | 123 | 4.0 | 6.0 | 0.00 | 0.00 | 0.00 | 63 | 1017.4 |
| 20260509180631 | 88 | 103 | 3.0 | 6.0 | 0.00 | 0.00 | 0.00 | 59 | 1017.3 |
| 20260509180128 | 89 | 120 | 4.0 | 7.0 | 0.00 | 0.00 | 0.00 | 59 | 1017.3 |
| 20260509175624 | 89 | 122 | 5.0 | 7.0 | 0.00 | 0.00 | 0.00 | 58 | 1017.6 |
| 20260509175121 | 90 | 172 | 3.0 | 9.0 | 0.00 | 0.00 | 0.00 | 58 | 1017.5 |
| 20260509174617 | 89 | 92 | 3.0 | 6.0 | 0.00 | 0.00 | 0.00 | 56 | 1017.5 |
| 20260509174112 | 89 | 117 | 4.0 | 8.0 | 0.00 | 0.00 | 0.00 | 58 | 1017.6 |
| 20260509173608 | 89 | 82 | 4.0 | 4.0 | 0.00 | 0.00 | 0.00 | 57 | 1017.5 |
| 20260509173103 | 89 | 338 | 4.0 | 9.0 | 0.00 | 0.00 | 0.00 | 59 | 1017.9 |
| 20260509172600 | 89 | 221 | 4.0 | 7.0 | 0.00 | 0.00 | 0.00 | 58 | 1017.7 |
| 20260509172056 | 88 | 103 | 3.0 | 6.0 | 0.00 | 0.00 | 0.00 | 58 | 1017.8 |
| 20260509171552 | 88 | 43 | 1.0 | 9.0 | 0.00 | 0.00 | 0.00 | 59 | 1018.1 |
| 20260509171048 | 87 | 17 | 4.0 | 10.0 | 0.00 | 0.00 | 0.00 | 61 | 1018.3 |
| 20260509170544 | 87 | 57 | 3.0 | 10.0 | 0.00 | 0.00 | 0.00 | 64 | 1018.3 |
| 20260509170041 | 86 | 181 | 5.0 | 7.0 | 0.00 | 0.00 | 0.00 | 64 | 1018.4 |
| 20260509165539 | 85 | 183 | 4.0 | 7.0 | 0.00 | 0.00 | 0.00 | 67 | 1018.2 |
| 20260509165035 | 86 | 322 | 2.0 | 7.0 | 0.00 | 0.00 | 0.00 | 67 | 1018.5 |
| 20260509164531 | 86 | 153 | 2.0 | 6.0 | 0.00 | 0.00 | 0.00 | 65 | 1018.5 |
| 20260509164027 | 86 | 356 | 3.0 | 11.0 | 0.00 | 0.00 | 0.00 | 67 | 1018.6 |
| 20260509163526 | 86 | 195 | 5.0 | 9.0 | 0.00 | 0.00 | 0.00 | 64 | 1018.6 |
| 20260509163026 | 86 | 354 | 4.0 | 7.0 | 0.00 | 0.00 | 0.00 | 64 | 1018.8 |
| 20260509162524 | 86 | 80 | 5.0 | 9.0 | 0.00 | 0.00 | 0.00 | 67 | 1018.9 |
| 20260509162019 | 87 | 192 | 5.0 | 10.0 | 0.00 | 0.00 | 0.00 | 65 | 1018.9 |
| 20260509161516 | 87 | 105 | 3.0 | 8.0 | 0.00 | 0.00 | 0.00 | 65 | 1018.8 |
| 20260509161016 | 86 | 322 | 4.0 | 10.0 | 0.00 | 0.00 | 0.00 | 62 | 1018.9 |
| 20260509160512 | 86 | 6 | 3.0 | 7.0 | 0.00 | 0.00 | 0.00 | 66 | 1019.0 |
| 20260509160008 | 86 | 223 | 5.0 | 10.0 | 0.00 | 0.00 | 0.00 | 66 | 1018.9 |
| 20260509155504 | 86 | 23 | 3.0 | 8.0 | 0.00 | 0.00 | 0.00 | 66 | 1019.1 |
| 20260509155000 | 86 | 141 | 5.0 | 8.0 | 0.00 | 0.00 | 0.00 | 64 | 1019.0 |
| 20260509154457 | 86 | 197 | 4.0 | 8.0 | 0.00 | 0.00 | 0.00 | 64 | 1018.9 |
| 20260509153955 | 87 | 54 | 4.0 | 8.0 | 0.00 | 0.00 | 0.00 | 61 | 1019.0 |
| 20260509153451 | 86 | 203 | 7.0 | 10.0 | 0.00 | 0.00 | 0.00 | 62 | 1019.1 |
| 20260509152948 | 87 | 72 | 3.0 | 7.0 | 0.00 | 0.00 | 0.00 | 61 | 1019.2 |
| 20260509152443 | 87 | 71 | 4.0 | 8.0 | 0.00 | 0.00 | 0.00 | 62 | 1019.2 |
| 20260509151941 | 88 | 324 | 4.0 | 9.0 | 0.00 | 0.00 | 0.00 | 60 | 1019.1 |
| 20260509151437 | 89 | 110 | 4.0 | 8.0 | 0.00 | 0.00 | 0.00 | 57 | 1019.3 |
| 20260509150935 | 89 | 101 | 5.0 | 9.0 | 0.00 | 0.00 | 0.00 | 56 | 1019.1 |
| 20260509150432 | 89 | 341 | 3.0 | 10.0 | 0.00 | 0.00 | 0.00 | 58 | 1019.3 |
| 20260509145931 | 88 | 112 | 3.0 | 4.0 | 0.00 | 0.00 | 0.00 | 58 | 1019.4 |
| 20260509145431 | 89 | 64 | 2.0 | 8.0 | 0.00 | 0.00 | 0.00 | 58 | 1019.3 |
| 20260509144926 | 89 | 99 | 2.0 | 4.0 | 0.00 | 0.00 | 0.00 | 58 | 1019.2 |
| 20260509144423 | 89 | 316 | 2.0 | 8.0 | 0.00 | 0.00 | 0.00 | 56 | 1019.4 |
| 20260509143920 | 88 | 19 | 4.0 | 7.0 | 0.00 | 0.00 | 0.00 | 57 | 1019.3 |
| 20260509143418 | 88 | 294 | 2.0 | 10.0 | 0.00 | 0.00 | 0.00 | 56 | 1019.5 |
| 20260509142914 | 88 | 185 | 5.0 | 10.0 | 0.00 | 0.00 | 0.00 | 58 | 1019.6 |
| 20260509142411 | 88 | 321 | 1.0 | 6.0 | 0.00 | 0.00 | 0.00 | 60 | 1019.6 |
| 20260509141906 | 87 | 143 | 3.0 | 9.0 | 0.00 | 0.00 | 0.00 | 61 | 1019.5 |
| 20260509141403 | 88 | 191 | 4.0 | 7.0 | 0.00 | 0.00 | 0.00 | 62 | 1019.6 |
| 20260509140900 | 87 | 48 | 2.0 | 4.0 | 0.00 | 0.00 | 0.00 | 62 | 1019.8 |
| 20260509140357 | 86 | 254 | 1.0 | 6.0 | 0.00 | 0.00 | 0.00 | 65 | 1019.8 |
| 20260509135855 | 86 | 180 | 4.0 | 9.0 | 0.00 | 0.00 | 0.00 | 64 | 1019.7 |
| 20260509135352 | 85 | 12 | 2.0 | 3.0 | 0.00 | 0.00 | 0.00 | 67 | 1019.9 |
| 20260509134849 | 85 | 346 | 3.0 | 6.0 | 0.00 | 0.00 | 0.00 | 67 | 1019.8 |
| 20260509134346 | 85 | 86 | 1.0 | 9.0 | 0.00 | 0.00 | 0.00 | 67 | 1019.7 |
| 20260509133843 | 86 | 326 | 2.0 | 10.0 | 0.00 | 0.00 | 0.00 | 65 | 1019.8 |
| 20260509133340 | 86 | 50 | 2.0 | 7.0 | 0.00 | 0.00 | 0.00 | 64 | 1019.4 |
| 20260509132839 | 86 | 30 | 1.0 | 7.0 | 0.00 | 0.00 | 0.00 | 66 | 1019.6 |
| 20260509132337 | 86 | 17 | 2.0 | 8.0 | 0.00 | 0.00 | 0.00 | 65 | 1019.6 |
| 20260509131833 | 86 | 94 | 4.0 | 8.0 | 0.00 | 0.00 | 0.00 | 64 | 1019.6 |
| 20260509131330 | 85 | 60 | 2.0 | 4.0 | 0.00 | 0.00 | 0.00 | 64 | 1019.8 |
| 20260509130826 | 86 | 209 | 4.0 | 4.0 | 0.00 | 0.00 | 0.00 | 64 | 1019.6 |
| 20260509130322 | 85 | 81 | 2.0 | 7.0 | 0.00 | 0.00 | 0.00 | 64 | 1019.3 |
| 20260509125819 | 85 | 151 | 3.0 | 7.0 | 0.00 | 0.00 | 0.00 | 64 | 1019.5 |
| 20260509125315 | 85 | 314 | 5.0 | 8.0 | 0.00 | 0.00 | 0.00 | 65 | 1019.5 |
| 20260509124812 | 86 | 92 | 2.0 | 7.0 | 0.00 | 0.00 | 0.00 | 65 | 1019.3 |
| 20260509124308 | 86 | 332 | 2.0 | 7.0 | 0.00 | 0.00 | 0.00 | 64 | 1019.3 |
| 20260509123807 | 86 | 68 | 2.0 | 4.0 | 0.00 | 0.00 | 0.00 | 64 | 1019.3 |
| 20260509123304 | 86 | 63 | 3.0 | 7.0 | 0.00 | 0.00 | 0.00 | 64 | 1019.5 |
| 20260509122759 | 86 | 6 | 4.0 | 9.0 | 0.00 | 0.00 | 0.00 | 64 | 1019.3 |
| 20260509122257 | 85 | 6 | 2.0 | 4.0 | 0.00 | 0.00 | 0.00 | 65 | 1019.4 |
| 20260509121753 | 84 | 14 | 6.0 | 13.0 | 0.00 | 0.00 | 0.00 | 65 | 1019.2 |
| 20260509121250 | 84 | 311 | 2.0 | 9.0 | 0.00 | 0.00 | 0.00 | 66 | 1019.3 |
| 20260509120749 | 84 | 351 | 2.0 | 6.0 | 0.00 | 0.00 | 0.00 | 67 | 1019.2 |
| 20260509120246 | 84 | 25 | 3.0 | 7.0 | 0.00 | 0.00 | 0.00 | 68 | 1019.1 |
| 20260509115744 | 84 | 202 | 4.0 | 9.0 | 0.00 | 0.00 | 0.00 | 67 | 1019.0 |
| 20260509115241 | 83 | 144 | 3.0 | 4.0 | 0.00 | 0.00 | 0.00 | 69 | 1019.0 |
| 20260509114739 | 83 | 35 | 3.0 | 6.0 | 0.00 | 0.00 | 0.00 | 71 | 1019.0 |
| 20260509114238 | 83 | 335 | 1.0 | 7.0 | 0.00 | 0.00 | 0.00 | 73 | 1018.9 |
| 20260509113736 | 83 | 323 | 3.0 | 6.0 | 0.00 | 0.00 | 0.00 | 72 | 1019.0 |
| 20260509113233 | 83 | 322 | 1.0 | 3.0 | 0.00 | 0.00 | 0.00 | 72 | 1018.8 |
| 20260509112729 | 82 | 3 | 0.0 | 4.0 | 0.00 | 0.00 | 0.00 | 72 | 1018.9 |
| 20260509112227 | 82 | 355 | 2.0 | 6.0 | 0.00 | 0.00 | 0.00 | 71 | 1018.8 |
| 20260509111724 | 81 | 14 | 1.0 | 3.0 | 0.00 | 0.00 | 0.00 | 73 | 1018.8 |
| 20260509111220 | 81 | 44 | 1.0 | 8.0 | 0.00 | 0.00 | 0.00 | 74 | 1018.7 |
| 20260509110718 | 80 | 352 | 1.0 | 2.0 | 0.00 | 0.00 | 0.00 | 75 | 1018.8 |
| 20260509110214 | 80 | 21 | 2.0 | 3.0 | 0.00 | 0.00 | 0.00 | 75 | 1018.7 |
| 20260509105713 | 80 | 108 | 1.0 | 7.0 | 0.00 | 0.00 | 0.00 | 75 | 1018.6 |
| 20260509105210 | 80 | 350 | 2.0 | 4.0 | 0.00 | 0.00 | 0.00 | 75 | 1018.6 |
| 20260509104707 | 80 | 2 | 1.0 | 3.0 | 0.00 | 0.00 | 0.00 | 76 | 1018.7 |
| 20260509104204 | 80 | 258 | 2.0 | 4.0 | 0.00 | 0.00 | 0.00 | 76 | 1018.5 |
| 20260509103702 | 80 | 351 | 1.0 | 2.0 | 0.00 | 0.00 | 0.00 | 76 | 1018.5 |
| 20260509103159 | 80 | 268 | 0.0 | 3.0 | 0.00 | 0.00 | 0.00 | 75 | 1018.3 |
| 20260509102657 | 80 | 17 | 5.0 | 7.0 | 0.00 | 0.00 | 0.00 | 75 | 1018.3 |
| 20260509102153 | 80 | 25 | 2.0 | 3.0 | 0.00 | 0.00 | 0.00 | 75 | 1018.3 |
| 20260509101649 | 80 | 314 | 1.0 | 2.0 | 0.00 | 0.00 | 0.00 | 75 | 1018.3 |
| 20260509101146 | 80 | 345 | 1.0 | 3.0 | 0.00 | 0.00 | 0.00 | 75 | 1018.1 |
| 20260509100644 | 80 | 3 | 3.0 | 4.0 | 0.00 | 0.00 | 0.00 | 75 | 1018.0 |
| 20260509100141 | 80 | 357 | 1.0 | 7.0 | 0.00 | 0.00 | 0.00 | 76 | 1018.3 |
| 20260509095637 | 80 | 343 | 1.0 | 3.0 | 0.00 | 0.00 | 0.00 | 76 | 1018.2 |
| 20260509095135 | 80 | 72 | 0.0 | 2.0 | 0.00 | 0.00 | 0.00 | 77 | 1018.0 |
| 20260509094631 | 80 | 120 | 1.0 | 6.0 | 0.00 | 0.00 | 0.00 | 77 | 1018.0 |
| 20260509094128 | 80 | 100 | 2.0 | 3.0 | 0.00 | 0.00 | 0.00 | 77 | 1017.9 |
| 20260509093627 | 80 | 325 | 1.0 | 4.0 | 0.00 | 0.00 | 0.00 | 77 | 1018.1 |
| 20260509093123 | 80 | 10 | 1.0 | 2.0 | 0.00 | 0.00 | 0.00 | 77 | 1017.9 |
| 20260509092621 | 80 | 249 | 1.0 | 3.0 | 0.00 | 0.00 | 0.00 | 77 | 1018.0 |
| 20260509092120 | 80 | 128 | 1.0 | 3.0 | 0.00 | 0.00 | 0.00 | 77 | 1018.0 |
| 20260509091618 | 80 | 2 | 1.0 | 6.0 | 0.00 | 0.00 | 0.00 | 77 | 1017.8 |
| 20260509091113 | 80 | 237 | 2.0 | 3.0 | 0.00 | 0.00 | 0.00 | 77 | 1017.7 |
| 20260509090611 | 80 | 3 | 2.0 | 2.0 | 0.00 | 0.00 | 0.00 | 76 | 1017.7 |
| 20260509090109 | 80 | 334 | 2.0 | 4.0 | 0.00 | 0.00 | 0.00 | 76 | 1017.5 |
| 20260509085606 | 80 | 323 | 3.0 | 7.0 | 0.00 | 0.00 | 0.00 | 77 | 1017.5 |
| 20260509085101 | 80 | 342 | 1.0 | 3.0 | 0.00 | 0.00 | 0.00 | 78 | 1017.4 |
| 20260509084553 | 80 | 337 | 1.0 | 2.0 | 0.00 | 0.00 | 0.00 | 78 | 1017.3 |
| 20260509084050 | 80 | 334 | 0.0 | 3.0 | 0.00 | 0.00 | 0.00 | 78 | 1017.2 |
| 20260509083547 | 80 | 65 | 2.0 | 8.0 | 0.00 | 0.00 | 0.00 | 78 | 1017.5 |
| 20260509083043 | 80 | 216 | 2.0 | 8.0 | 0.00 | 0.00 | 0.00 | 80 | 1017.3 |
| 20260509082542 | 80 | 49 | 1.0 | 3.0 | 0.00 | 0.00 | 0.00 | 80 | 1017.4 |
| 20260509082038 | 80 | 324 | 0.0 | 3.0 | 0.00 | 0.00 | 0.00 | 80 | 1017.2 |
| 20260509081536 | 80 | 13 | 1.0 | 4.0 | 0.00 | 0.00 | 0.00 | 81 | 1017.3 |
| 20260509081032 | 80 | 358 | 2.0 | 4.0 | 0.00 | 0.00 | 0.00 | 81 | 1017.3 |
| 20260509080530 | 80 | 321 | 0.0 | 4.0 | 0.00 | 0.00 | 0.00 | 81 | 1017.2 |
| 20260509080028 | 80 | 301 | 3.0 | 4.0 | 0.00 | 0.00 | 0.00 | 81 | 1017.3 |
| 20260509075525 | 80 | 337 | 1.0 | 2.0 | 0.00 | 0.00 | 0.00 | 81 | 1017.4 |
| 20260509075023 | 80 | 78 | 2.0 | 4.0 | 0.00 | 0.00 | 0.00 | 81 | 1017.3 |
| 20260509074520 | 80 | 16 | 2.0 | 4.0 | 0.00 | 0.00 | 0.00 | 81 | 1017.1 |
| 20260509074016 | 80 | 330 | 2.0 | 6.0 | 0.00 | 0.00 | 0.00 | 80 | 1017.4 |
| 20260509073513 | 80 | 23 | 1.0 | 3.0 | 0.00 | 0.00 | 0.00 | 81 | 1017.3 |
| 20260509073009 | 80 | 343 | 0.0 | 3.0 | 0.00 | 0.00 | 0.00 | 81 | 1017.3 |
| 20260509072506 | 80 | 354 | 0.0 | 8.0 | 0.00 | 0.00 | 0.00 | 81 | 1017.3 |
| 20260509072003 | 80 | 5 | 0.0 | 4.0 | 0.00 | 0.00 | 0.00 | 81 | 1017.1 |
| 20260509071459 | 80 | 340 | 1.0 | 3.0 | 0.00 | 0.00 | 0.00 | 81 | 1017.1 |
| 20260509070957 | 80 | 331 | 0.0 | 4.0 | 0.00 | 0.00 | 0.00 | 81 | 1016.8 |
| 20260509070454 | 80 | 51 | 0.0 | 1.0 | 0.00 | 0.00 | 0.00 | 81 | 1017.3 |
| 20260509065950 | 80 | 341 | 0.0 | 2.0 | 0.00 | 0.00 | 0.00 | 81 | 1017.1 |
| 20260509065446 | 80 | 352 | 1.0 | 3.0 | 0.00 | 0.00 | 0.00 | 80 | 1017.1 |
| 20260509064942 | 80 | 1 | 0.0 | 3.0 | 0.00 | 0.00 | 0.00 | 80 | 1017.1 |
| 20260509064440 | 80 | 357 | 3.0 | 3.0 | 0.00 | 0.00 | 0.00 | 80 | 1017.2 |
| 20260509063938 | 80 | 345 | 1.0 | 4.0 | 0.00 | 0.00 | 0.00 | 80 | 1017.4 |
| 20260509063438 | 80 | 353 | 1.0 | 6.0 | 0.00 | 0.00 | 0.00 | 81 | 1017.3 |
| 20260509062936 | 80 | 330 | 2.0 | 3.0 | 0.00 | 0.00 | 0.00 | 81 | 1017.3 |
| 20260509062433 | 80 | 15 | 2.0 | 3.0 | 0.00 | 0.00 | 0.00 | 81 | 1017.4 |
| 20260509061931 | 80 | 13 | 0.0 | 4.0 | 0.00 | 0.00 | 0.00 | 81 | 1017.3 |
| 20260509061428 | 80 | 23 | 2.0 | 3.0 | 0.00 | 0.00 | 0.00 | 81 | 1017.5 |
| 20260509060925 | 80 | 35 | 2.0 | 3.0 | 0.00 | 0.00 | 0.00 | 80 | 1017.6 |
| 20260509060422 | 80 | 348 | 1.0 | 3.0 | 0.00 | 0.00 | 0.00 | 80 | 1017.6 |
| 20260509055917 | 80 | 3 | 1.0 | 3.0 | 0.00 | 0.00 | 0.00 | 80 | 1017.7 |
| 20260509055413 | 80 | 30 | 2.0 | 3.0 | 0.00 | 0.00 | 0.00 | 80 | 1017.6 |
| 20260509054910 | 80 | 7 | 1.0 | 2.0 | 0.00 | 0.00 | 0.00 | 80 | 1017.9 |
| 20260509054407 | 80 | 84 | 1.0 | 1.0 | 0.00 | 0.00 | 0.00 | 80 | 1017.8 |
| 20260509053905 | 80 | 15 | 1.0 | 2.0 | 0.00 | 0.00 | 0.00 | 80 | 1017.9 |
| 20260509053402 | 80 | 334 | 2.0 | 3.0 | 0.00 | 0.00 | 0.00 | 80 | 1017.7 |
| 20260509052900 | 80 | 8 | 1.0 | 4.0 | 0.00 | 0.00 | 0.00 | 80 | 1017.9 |
| 20260509052357 | 81 | 18 | 2.0 | 6.0 | 0.00 | 0.00 | 0.00 | 80 | 1017.8 |
| 20260509051855 | 81 | 353 | 1.0 | 7.0 | 0.00 | 0.00 | 0.00 | 80 | 1017.9 |
| 20260509051353 | 81 | 64 | 1.0 | 2.0 | 0.00 | 0.00 | 0.00 | 80 | 1018.1 |
| 20260509050849 | 81 | 326 | 1.0 | 3.0 | 0.00 | 0.00 | 0.00 | 80 | 1018.0 |
| 20260509050346 | 81 | 342 | 0.0 | 1.0 | 0.00 | 0.00 | 0.00 | 80 | 1018.2 |
| 20260509045842 | 81 | 352 | 1.0 | 1.0 | 0.00 | 0.00 | 0.00 | 80 | 1018.3 |
| 20260509045340 | 81 | 346 | 0.0 | 1.0 | 0.00 | 0.00 | 0.00 | 80 | 1018.2 |
| 20260509044837 | 81 | 349 | 1.0 | 2.0 | 0.00 | 0.00 | 0.00 | 80 | 1018.4 |
| 20260509044334 | 81 | 0 | 1.0 | 4.0 | 0.00 | 0.00 | 0.00 | 80 | 1018.3 |
| 20260509043831 | 81 | 312 | 2.0 | 3.0 | 0.00 | 0.00 | 0.00 | 80 | 1018.4 |
| 20260509043327 | 81 | 5 | 1.0 | 4.0 | 0.00 | 0.00 | 0.00 | 80 | 1018.4 |